Year,Month,Day,Hour,Minute,Value (Times are PST for windgust in km/hr)
2018,12,20,00,00,22.50
2018,12,20,00,01,20.90
2018,12,20,00,02,16.10
2018,12,20,00,03,16.10
2018,12,20,00,04,19.30
2018,12,20,00,05,22.50
2018,12,20,00,06,22.50
2018,12,20,00,07,14.50
2018,12,20,00,08,19.30
2018,12,20,00,09,17.70
2018,12,20,00,10,17.70
2018,12,20,00,11,16.10
2018,12,20,00,12,11.30
2018,12,20,00,13,8.10
2018,12,20,00,14,6.40
2018,12,20,00,15,12.90
2018,12,20,00,16,19.30
2018,12,20,00,17,17.70
2018,12,20,00,18,16.10
2018,12,20,00,19,22.50
2018,12,20,00,20,17.70
2018,12,20,00,21,19.30
2018,12,20,00,22,16.10
2018,12,20,00,23,22.50
2018,12,20,00,24,25.70
2018,12,20,00,25,20.90
2018,12,20,00,26,19.30
2018,12,20,00,27,29.00
2018,12,20,00,28,11.30
2018,12,20,00,29,11.30
2018,12,20,00,30,17.70
2018,12,20,00,31,17.70
2018,12,20,00,32,20.90
2018,12,20,00,33,19.30
2018,12,20,00,34,16.10
2018,12,20,00,35,16.10
2018,12,20,00,36,9.60
2018,12,20,00,37,11.30
2018,12,20,00,38,16.10
2018,12,20,00,39,11.30
2018,12,20,00,40,8.10
2018,12,20,00,41,17.70
2018,12,20,00,42,16.10
2018,12,20,00,43,19.30
2018,12,20,00,44,11.30
2018,12,20,00,45,9.60
2018,12,20,00,46,6.40
2018,12,20,00,47,8.10
2018,12,20,00,48,1.60
2018,12,20,00,50,6.40
2018,12,20,00,51,8.10
2018,12,20,00,52,19.30
2018,12,20,00,53,25.70
2018,12,20,00,54,20.90
2018,12,20,00,55,19.30
2018,12,20,00,56,20.90
2018,12,20,00,57,20.90
2018,12,20,00,58,24.20
2018,12,20,00,59,19.30
2018,12,20,01,00,12.90
2018,12,20,01,01,11.30
2018,12,20,01,02,12.90
2018,12,20,01,03,9.60
2018,12,20,01,04,9.60
2018,12,20,01,05,8.10
2018,12,20,01,06,11.30
2018,12,20,01,07,11.30
2018,12,20,01,08,6.40
2018,12,20,01,09,16.10
2018,12,20,01,10,16.10
2018,12,20,01,11,16.10
2018,12,20,01,12,20.90
2018,12,20,01,13,9.60
2018,12,20,01,14,14.50
2018,12,20,01,15,14.50
2018,12,20,01,16,9.60
2018,12,20,01,17,11.30
2018,12,20,01,18,8.10
2018,12,20,01,19,8.10
2018,12,20,01,20,9.60
2018,12,20,01,21,8.10
2018,12,20,01,22,8.10
2018,12,20,01,23,8.10
2018,12,20,01,24,4.80
2018,12,20,01,25,6.40
2018,12,20,01,26,4.80
2018,12,20,01,27,4.80
2018,12,20,01,28,8.10
2018,12,20,01,29,9.60
2018,12,20,01,30,6.40
2018,12,20,01,31,16.10
2018,12,20,01,32,9.60
2018,12,20,01,33,4.80
2018,12,20,01,34,4.80
2018,12,20,01,35,4.80
2018,12,20,01,36,4.80
2018,12,20,01,37,8.10
2018,12,20,01,38,16.10
2018,12,20,01,39,9.60
2018,12,20,01,40,8.10
2018,12,20,01,41,14.50
2018,12,20,01,42,16.10
2018,12,20,01,43,11.30
2018,12,20,01,44,4.80
2018,12,20,01,45,8.10
2018,12,20,01,46,17.70
2018,12,20,01,47,14.50
2018,12,20,01,48,9.60
2018,12,20,01,49,9.60
2018,12,20,01,50,11.30
2018,12,20,01,51,16.10
2018,12,20,01,52,12.90
2018,12,20,01,53,9.60
2018,12,20,01,54,9.60
2018,12,20,01,55,9.60
2018,12,20,01,56,9.60
2018,12,20,01,57,3.20
2018,12,20,01,58,4.80
2018,12,20,01,59,8.10
2018,12,20,02,00,12.90
2018,12,20,02,01,11.30
2018,12,20,02,02,8.10
2018,12,20,02,03,8.10
2018,12,20,02,04,4.80
2018,12,20,02,05,6.40
2018,12,20,02,06,6.40
2018,12,20,02,07,11.30
2018,12,20,02,08,11.30
2018,12,20,02,09,8.10
2018,12,20,02,10,11.30
2018,12,20,02,11,11.30
2018,12,20,02,12,9.60
2018,12,20,02,13,9.60
2018,12,20,02,14,6.40
2018,12,20,02,15,14.50
2018,12,20,02,16,20.90
2018,12,20,02,17,11.30
2018,12,20,02,18,11.30
2018,12,20,02,19,11.30
2018,12,20,02,20,16.10
2018,12,20,02,21,17.70
2018,12,20,02,22,14.50
2018,12,20,02,23,14.50
2018,12,20,02,24,9.60
2018,12,20,02,25,11.30
2018,12,20,02,26,16.10
2018,12,20,02,27,17.70
2018,12,20,02,28,9.60
2018,12,20,02,29,17.70
2018,12,20,02,30,17.70
2018,12,20,02,31,16.10
2018,12,20,02,32,22.50
2018,12,20,02,33,8.10
2018,12,20,02,34,12.90
2018,12,20,02,35,9.60
2018,12,20,02,36,11.30
2018,12,20,02,37,14.50
2018,12,20,02,38,17.70
2018,12,20,02,39,17.70
2018,12,20,02,40,16.10
2018,12,20,02,41,17.70
2018,12,20,02,42,6.40
2018,12,20,02,43,22.50
2018,12,20,02,44,19.30
2018,12,20,02,45,17.70
2018,12,20,02,46,17.70
2018,12,20,02,47,24.20
2018,12,20,02,48,17.70
2018,12,20,02,49,17.70
2018,12,20,02,50,24.20
2018,12,20,02,51,22.50
2018,12,20,02,52,11.30
2018,12,20,02,53,24.20
2018,12,20,02,54,16.10
2018,12,20,02,55,24.20
2018,12,20,02,56,14.50
2018,12,20,02,57,24.20
2018,12,20,02,58,24.20
2018,12,20,02,59,24.20
2018,12,20,03,00,19.30
2018,12,20,03,01,9.60
2018,12,20,03,02,19.30
2018,12,20,03,03,27.40
2018,12,20,03,04,27.40
2018,12,20,03,05,25.70
2018,12,20,03,06,25.70
2018,12,20,03,07,27.40
2018,12,20,03,08,22.50
2018,12,20,03,09,22.50
2018,12,20,03,10,25.70
2018,12,20,03,11,29.00
2018,12,20,03,12,24.20
2018,12,20,03,13,17.70
2018,12,20,03,14,37.00
2018,12,20,03,15,33.80
2018,12,20,03,16,24.20
2018,12,20,03,17,32.20
2018,12,20,03,18,11.30
2018,12,20,03,19,24.20
2018,12,20,03,20,19.30
2018,12,20,03,21,20.90
2018,12,20,03,22,38.60
2018,12,20,03,23,20.90
2018,12,20,03,24,19.30
2018,12,20,03,25,16.10
2018,12,20,03,26,16.10
2018,12,20,03,27,16.10
2018,12,20,03,28,22.50
2018,12,20,03,29,17.70
2018,12,20,03,30,27.40
2018,12,20,03,31,33.80
2018,12,20,03,32,30.60
2018,12,20,03,33,29.00
2018,12,20,03,34,33.80
2018,12,20,03,35,29.00
2018,12,20,03,36,27.40
2018,12,20,03,37,30.60
2018,12,20,03,38,22.50
2018,12,20,03,39,22.50
2018,12,20,03,40,25.70
2018,12,20,03,41,41.80
2018,12,20,03,42,19.30
2018,12,20,03,43,20.90
2018,12,20,03,44,20.90
2018,12,20,03,45,27.40
2018,12,20,03,46,24.20
2018,12,20,03,47,11.30
2018,12,20,03,48,25.70
2018,12,20,03,49,25.70
2018,12,20,03,50,20.90
2018,12,20,03,51,24.20
2018,12,20,03,52,22.50
2018,12,20,03,53,17.70
2018,12,20,03,54,24.20
2018,12,20,03,55,43.50
2018,12,20,03,56,30.60
2018,12,20,03,57,22.50
2018,12,20,03,58,20.90
2018,12,20,03,59,30.60
2018,12,20,04,00,27.40
2018,12,20,04,01,25.70
2018,12,20,04,02,32.20
2018,12,20,04,03,30.60
2018,12,20,04,04,38.60
2018,12,20,04,05,29.00
2018,12,20,04,06,38.60
2018,12,20,04,07,29.00
2018,12,20,04,08,33.80
2018,12,20,04,09,33.80
2018,12,20,04,10,27.40
2018,12,20,04,11,32.20
2018,12,20,04,12,17.70
2018,12,20,04,13,30.60
2018,12,20,04,14,25.70
2018,12,20,04,15,29.00
2018,12,20,04,16,25.70
2018,12,20,04,17,24.20
2018,12,20,04,18,14.50
2018,12,20,04,19,24.20
2018,12,20,04,20,17.70
2018,12,20,04,21,16.10
2018,12,20,04,22,30.60
2018,12,20,04,23,29.00
2018,12,20,04,24,25.70
2018,12,20,04,25,14.50
2018,12,20,04,26,22.50
2018,12,20,04,27,22.50
2018,12,20,04,28,14.50
2018,12,20,04,29,22.50
2018,12,20,04,30,8.10
2018,12,20,04,31,19.30
2018,12,20,04,32,24.20
2018,12,20,04,33,25.70
2018,12,20,04,34,25.70
2018,12,20,04,35,24.20
2018,12,20,04,36,19.30
2018,12,20,04,37,19.30
2018,12,20,04,38,14.50
2018,12,20,04,39,20.90
2018,12,20,04,40,19.30
2018,12,20,04,41,20.90
2018,12,20,04,42,16.10
2018,12,20,04,43,14.50
2018,12,20,04,44,6.40
2018,12,20,04,45,16.10
2018,12,20,04,46,22.50
2018,12,20,04,47,9.60
2018,12,20,04,48,14.50
2018,12,20,04,49,14.50
2018,12,20,04,50,8.10
2018,12,20,04,51,4.80
2018,12,20,04,52,4.80
2018,12,20,04,53,19.30
2018,12,20,04,54,14.50
2018,12,20,04,55,9.60
2018,12,20,04,56,8.10
2018,12,20,04,57,19.30
2018,12,20,04,58,14.50
2018,12,20,04,59,17.70
2018,12,20,05,00,11.30
2018,12,20,05,01,16.10
2018,12,20,05,02,16.10
2018,12,20,05,03,19.30
2018,12,20,05,04,19.30
2018,12,20,05,05,16.10
2018,12,20,05,06,16.10
2018,12,20,05,07,19.30
2018,12,20,05,08,16.10
2018,12,20,05,09,17.70
2018,12,20,05,10,20.90
2018,12,20,05,11,22.50
2018,12,20,05,12,16.10
2018,12,20,05,13,12.90
2018,12,20,05,14,16.10
2018,12,20,05,15,20.90
2018,12,20,05,16,19.30
2018,12,20,05,17,27.40
2018,12,20,05,18,22.50
2018,12,20,05,19,22.50
2018,12,20,05,20,19.30
2018,12,20,05,21,22.50
2018,12,20,05,22,17.70
2018,12,20,05,23,17.70
2018,12,20,05,24,24.20
2018,12,20,05,25,19.30
2018,12,20,05,26,11.30
2018,12,20,05,27,17.70
2018,12,20,05,28,20.90
2018,12,20,05,29,30.60
2018,12,20,05,30,9.60
2018,12,20,05,31,16.10
2018,12,20,05,32,16.10
2018,12,20,05,33,22.50
2018,12,20,05,34,17.70
2018,12,20,05,35,12.90
2018,12,20,05,36,19.30
2018,12,20,05,37,24.20
2018,12,20,05,38,16.10
2018,12,20,05,39,14.50
2018,12,20,05,40,24.20
2018,12,20,05,41,22.50
2018,12,20,05,42,29.00
2018,12,20,05,43,29.00
2018,12,20,05,44,25.70
2018,12,20,05,45,24.20
2018,12,20,05,46,40.20
2018,12,20,05,47,30.60
2018,12,20,05,48,22.50
2018,12,20,05,49,29.00
2018,12,20,05,50,20.90
2018,12,20,05,51,27.40
2018,12,20,05,52,27.40
2018,12,20,05,53,25.70
2018,12,20,05,54,27.40
2018,12,20,05,55,24.20
2018,12,20,05,56,30.60
2018,12,20,05,57,37.00
2018,12,20,05,58,35.40
2018,12,20,05,59,30.60
2018,12,20,06,00,40.20
2018,12,20,06,01,22.50
2018,12,20,06,02,33.80
2018,12,20,06,03,38.60
2018,12,20,06,04,38.60
2018,12,20,06,05,45.10
2018,12,20,06,06,32.20
2018,12,20,06,07,29.00
2018,12,20,06,08,32.20
2018,12,20,06,09,22.50
2018,12,20,06,10,22.50
2018,12,20,06,11,43.50
2018,12,20,06,12,45.10
2018,12,20,06,13,29.00
2018,12,20,06,14,27.40
2018,12,20,06,15,30.60
2018,12,20,06,16,35.40
2018,12,20,06,17,35.40
2018,12,20,06,18,29.00
2018,12,20,06,19,27.40
2018,12,20,06,20,25.70
2018,12,20,06,21,24.20
2018,12,20,06,22,27.40
2018,12,20,06,23,27.40
2018,12,20,06,24,30.60
2018,12,20,06,25,29.00
2018,12,20,06,26,40.20
2018,12,20,06,27,30.60
2018,12,20,06,28,20.90
2018,12,20,06,29,29.00
2018,12,20,06,30,41.80
2018,12,20,06,31,37.00
2018,12,20,06,32,25.70
2018,12,20,06,33,27.40
2018,12,20,06,34,33.80
2018,12,20,06,35,25.70
2018,12,20,06,36,33.80
2018,12,20,06,37,27.40
2018,12,20,06,38,43.50
2018,12,20,06,39,35.40
2018,12,20,06,40,27.40
2018,12,20,06,41,24.20
2018,12,20,06,42,32.20
2018,12,20,06,43,24.20
2018,12,20,06,44,29.00
2018,12,20,06,45,30.60
2018,12,20,06,46,37.00
2018,12,20,06,47,29.00
2018,12,20,06,48,27.40
2018,12,20,06,49,43.50
2018,12,20,06,50,40.20
2018,12,20,06,51,33.80
2018,12,20,06,52,22.50
2018,12,20,06,53,41.80
2018,12,20,06,54,30.60
2018,12,20,06,55,30.60
2018,12,20,06,56,27.40
2018,12,20,06,57,33.80
2018,12,20,06,58,30.60
2018,12,20,06,59,37.00
2018,12,20,07,00,41.80
2018,12,20,07,01,35.40
2018,12,20,07,02,45.10
2018,12,20,07,03,35.40
2018,12,20,07,04,32.20
2018,12,20,07,05,29.00
2018,12,20,07,06,32.20
2018,12,20,07,07,30.60
2018,12,20,07,08,33.80
2018,12,20,07,09,32.20
2018,12,20,07,10,29.00
2018,12,20,07,11,27.40
2018,12,20,07,12,35.40
2018,12,20,07,13,38.60
2018,12,20,07,14,22.50
2018,12,20,07,15,32.20
2018,12,20,07,16,24.20
2018,12,20,07,17,41.80
2018,12,20,07,18,35.40
2018,12,20,07,19,27.40
2018,12,20,07,20,27.40
2018,12,20,07,21,32.20
2018,12,20,07,22,37.00
2018,12,20,07,23,45.10
2018,12,20,07,24,43.50
2018,12,20,07,25,40.20
2018,12,20,07,26,38.60
2018,12,20,07,27,32.20
2018,12,20,07,28,38.60
2018,12,20,07,29,45.10
2018,12,20,07,30,37.00
2018,12,20,07,31,48.30
2018,12,20,07,32,32.20
2018,12,20,07,33,37.00
2018,12,20,07,34,40.20
2018,12,20,07,35,32.20
2018,12,20,07,36,33.80
2018,12,20,07,37,25.70
2018,12,20,07,38,30.60
2018,12,20,07,39,20.90
2018,12,20,07,40,25.70
2018,12,20,07,41,29.00
2018,12,20,07,42,33.80
2018,12,20,07,43,25.70
2018,12,20,07,44,29.00
2018,12,20,07,45,33.80
2018,12,20,07,46,37.00
2018,12,20,07,47,25.70
2018,12,20,07,48,29.00
2018,12,20,07,49,33.80
2018,12,20,07,50,27.40
2018,12,20,07,51,32.20
2018,12,20,07,52,37.00
2018,12,20,07,53,30.60
2018,12,20,07,54,30.60
2018,12,20,07,55,27.40
2018,12,20,07,56,24.20
2018,12,20,07,57,24.20
2018,12,20,07,58,30.60
2018,12,20,07,59,32.20
2018,12,20,08,00,25.70
2018,12,20,08,01,27.40
2018,12,20,08,02,37.00
2018,12,20,08,03,33.80
2018,12,20,08,04,25.70
2018,12,20,08,05,25.70
2018,12,20,08,06,27.40
2018,12,20,08,07,27.40
2018,12,20,08,08,30.60
2018,12,20,08,09,24.20
2018,12,20,08,10,25.70
2018,12,20,08,11,17.70
2018,12,20,08,12,17.70
2018,12,20,08,13,27.40
2018,12,20,08,14,19.30
2018,12,20,08,15,29.00
2018,12,20,08,16,20.90
2018,12,20,08,17,24.20
2018,12,20,08,18,22.50
2018,12,20,08,19,27.40
2018,12,20,08,20,25.70
2018,12,20,08,21,24.20
2018,12,20,08,22,29.00
2018,12,20,08,23,20.90
2018,12,20,08,24,17.70
2018,12,20,08,25,19.30
2018,12,20,08,26,24.20
2018,12,20,08,27,24.20
2018,12,20,08,28,25.70
2018,12,20,08,29,24.20
2018,12,20,08,30,27.40
2018,12,20,08,31,32.20
2018,12,20,08,32,25.70
2018,12,20,08,33,25.70
2018,12,20,08,34,29.00
2018,12,20,08,35,22.50
2018,12,20,08,36,22.50
2018,12,20,08,37,27.40
2018,12,20,08,38,30.60
2018,12,20,08,39,20.90
2018,12,20,08,40,37.00
2018,12,20,08,41,32.20
2018,12,20,08,42,32.20
2018,12,20,08,43,32.20
2018,12,20,08,44,30.60
2018,12,20,08,45,32.20
2018,12,20,08,46,37.00
2018,12,20,08,47,20.90
2018,12,20,08,48,38.60
2018,12,20,08,49,37.00
2018,12,20,08,50,30.60
2018,12,20,08,51,25.70
2018,12,20,08,52,32.20
2018,12,20,08,53,30.60
2018,12,20,08,54,33.80
2018,12,20,08,55,27.40
2018,12,20,08,56,22.50
2018,12,20,08,57,24.20
2018,12,20,08,58,16.10
2018,12,20,08,59,20.90
2018,12,20,09,00,16.10
2018,12,20,09,01,20.90
2018,12,20,09,02,19.30
2018,12,20,09,03,25.70
2018,12,20,09,04,14.50
2018,12,20,09,05,19.30
2018,12,20,09,06,19.30
2018,12,20,09,07,20.90
2018,12,20,09,08,20.90
2018,12,20,09,09,20.90
2018,12,20,09,10,27.40
2018,12,20,09,11,11.30
2018,12,20,09,12,14.50
2018,12,20,09,13,20.90
2018,12,20,09,14,24.20
2018,12,20,09,15,20.90
2018,12,20,09,16,24.20
2018,12,20,09,17,27.40
2018,12,20,09,18,24.20
2018,12,20,09,19,17.70
2018,12,20,09,20,20.90
2018,12,20,09,21,20.90
2018,12,20,09,22,11.30
2018,12,20,09,23,29.00
2018,12,20,09,24,20.90
2018,12,20,09,25,22.50
2018,12,20,09,26,20.90
2018,12,20,09,27,19.30
2018,12,20,09,28,16.10
2018,12,20,09,29,16.10
2018,12,20,09,30,22.50
2018,12,20,09,31,8.10
2018,12,20,09,32,11.30
2018,12,20,09,33,16.10
2018,12,20,09,34,19.30
2018,12,20,09,35,20.90
2018,12,20,09,36,17.70
2018,12,20,09,37,14.50
2018,12,20,09,38,19.30
2018,12,20,09,39,19.30
2018,12,20,09,40,17.70
2018,12,20,09,41,16.10
2018,12,20,09,42,17.70
2018,12,20,09,43,14.50
2018,12,20,09,44,22.50
2018,12,20,09,45,19.30
2018,12,20,09,46,14.50
2018,12,20,09,47,22.50
2018,12,20,09,48,25.70
2018,12,20,09,49,22.50
2018,12,20,09,50,20.90
2018,12,20,09,51,19.30
2018,12,20,09,52,24.20
2018,12,20,09,53,20.90
2018,12,20,09,54,20.90
2018,12,20,09,55,27.40
2018,12,20,09,56,16.10
2018,12,20,09,57,19.30
2018,12,20,09,58,17.70
2018,12,20,09,59,17.70
2018,12,20,10,00,24.20
2018,12,20,10,01,30.60
2018,12,20,10,02,27.40
2018,12,20,10,03,30.60
2018,12,20,10,04,27.40
2018,12,20,10,05,22.50
2018,12,20,10,06,16.10
2018,12,20,10,07,9.60
2018,12,20,10,08,27.40
2018,12,20,10,09,22.50
2018,12,20,10,10,22.50
2018,12,20,10,11,22.50
2018,12,20,10,12,19.30
2018,12,20,10,13,16.10
2018,12,20,10,14,17.70
2018,12,20,10,15,9.60
2018,12,20,10,16,14.50
2018,12,20,10,17,11.30
2018,12,20,10,18,17.70
2018,12,20,10,19,9.60
2018,12,20,10,20,9.60
2018,12,20,10,21,8.10
2018,12,20,10,22,20.90
2018,12,20,10,23,9.60
2018,12,20,10,24,11.30
2018,12,20,10,25,11.30
2018,12,20,10,26,11.30
2018,12,20,10,27,6.40
2018,12,20,10,28,9.60
2018,12,20,10,29,14.50
2018,12,20,10,30,14.50
2018,12,20,10,31,11.30
2018,12,20,10,32,8.10
2018,12,20,10,33,11.30
2018,12,20,10,34,12.90
2018,12,20,10,35,14.50
2018,12,20,10,36,17.70
2018,12,20,10,37,8.10
2018,12,20,10,38,6.40
2018,12,20,10,39,11.30
2018,12,20,10,40,11.30
2018,12,20,10,41,9.60
2018,12,20,10,42,8.10
2018,12,20,10,43,8.10
2018,12,20,10,44,12.90
2018,12,20,10,45,9.60
2018,12,20,10,46,16.10
2018,12,20,10,47,14.50
2018,12,20,10,48,9.60
2018,12,20,10,49,14.50
2018,12,20,10,50,11.30
2018,12,20,10,51,11.30
2018,12,20,10,52,11.30
2018,12,20,10,53,8.10
2018,12,20,10,54,6.40
2018,12,20,10,55,16.10
2018,12,20,10,56,14.50
2018,12,20,10,57,14.50
2018,12,20,10,58,16.10
2018,12,20,10,59,16.10
2018,12,20,11,00,30.60
2018,12,20,11,01,20.90
2018,12,20,11,02,19.30
2018,12,20,11,03,22.50
2018,12,20,11,04,20.90
2018,12,20,11,05,19.30
2018,12,20,11,06,24.20
2018,12,20,11,07,24.20
2018,12,20,11,08,41.80
2018,12,20,11,09,38.60
2018,12,20,11,10,43.50
2018,12,20,11,11,32.20
2018,12,20,11,12,27.40
2018,12,20,11,13,46.70
2018,12,20,11,14,25.70
2018,12,20,11,15,27.40
2018,12,20,11,16,38.60
2018,12,20,11,17,40.20
2018,12,20,11,18,45.10
2018,12,20,11,19,46.70
2018,12,20,11,20,46.70
2018,12,20,11,21,41.80
2018,12,20,11,22,43.50
2018,12,20,11,23,33.80
2018,12,20,11,24,40.20
2018,12,20,11,25,30.60
2018,12,20,11,26,29.00
2018,12,20,11,27,37.00
2018,12,20,11,28,48.30
2018,12,20,11,29,53.10
2018,12,20,11,30,35.40
2018,12,20,11,31,32.20
2018,12,20,11,32,38.60
2018,12,20,11,33,43.50
2018,12,20,11,34,46.70
2018,12,20,11,35,48.30
2018,12,20,11,36,33.80
2018,12,20,11,37,46.70
2018,12,20,11,38,40.20
2018,12,20,11,39,37.00
2018,12,20,11,40,33.80
2018,12,20,11,41,48.30
2018,12,20,11,42,56.30
2018,12,20,11,43,53.10
2018,12,20,11,44,40.20
2018,12,20,11,45,53.10
2018,12,20,11,46,43.50
2018,12,20,11,47,37.00
2018,12,20,11,48,53.10
2018,12,20,11,49,43.50
2018,12,20,11,50,51.50
2018,12,20,11,51,53.10
2018,12,20,11,52,41.80
2018,12,20,11,53,32.20
2018,12,20,11,54,41.80
2018,12,20,11,55,37.00
2018,12,20,11,56,35.40
2018,12,20,11,57,32.20
2018,12,20,11,58,30.60
2018,12,20,11,59,49.90
2018,12,20,12,00,53.10
2018,12,20,12,01,49.90
2018,12,20,12,02,53.10
2018,12,20,12,03,46.70
2018,12,20,12,04,35.40
2018,12,20,12,05,41.80
2018,12,20,12,06,48.30
2018,12,20,12,07,41.80
2018,12,20,12,08,53.10
2018,12,20,12,09,56.30
2018,12,20,12,10,64.40
2018,12,20,12,11,53.10
2018,12,20,12,12,54.70
2018,12,20,12,13,69.20
2018,12,20,12,14,54.70
2018,12,20,12,15,53.10
2018,12,20,12,16,41.80
2018,12,20,12,17,41.80
2018,12,20,12,18,48.30
2018,12,20,12,19,45.10
2018,12,20,12,20,41.80
2018,12,20,12,21,53.10
2018,12,20,12,22,40.20
2018,12,20,12,23,49.90
2018,12,20,12,24,30.60
2018,12,20,12,25,30.60
2018,12,20,12,26,54.70
2018,12,20,12,27,54.70
2018,12,20,12,28,53.10
2018,12,20,12,29,48.30
2018,12,20,12,30,54.70
2018,12,20,12,31,61.20
2018,12,20,12,32,53.10
2018,12,20,12,33,53.10
2018,12,20,12,34,54.70
2018,12,20,12,35,53.10
2018,12,20,12,36,56.30
2018,12,20,12,37,37.00
2018,12,20,12,38,51.50
2018,12,20,12,39,54.70
2018,12,20,12,40,45.10
2018,12,20,12,41,49.90
2018,12,20,12,42,54.70
2018,12,20,12,43,56.30
2018,12,20,12,44,61.20
2018,12,20,12,45,51.50
2018,12,20,12,46,54.70
2018,12,20,12,47,45.10
2018,12,20,12,48,48.30
2018,12,20,12,49,51.50
2018,12,20,12,50,35.40
2018,12,20,12,51,40.20
2018,12,20,12,52,37.00
2018,12,20,12,53,46.70
2018,12,20,12,54,40.20
2018,12,20,12,55,45.10
2018,12,20,12,56,49.90
2018,12,20,12,57,51.50
2018,12,20,12,58,35.40
2018,12,20,12,59,46.70
2018,12,20,13,00,41.80
2018,12,20,13,01,41.80
2018,12,20,13,02,43.50
2018,12,20,13,03,32.20
2018,12,20,13,04,38.60
2018,12,20,13,05,30.60
2018,12,20,13,06,16.10
2018,12,20,13,07,45.10
2018,12,20,13,08,37.00
2018,12,20,13,09,46.70
2018,12,20,13,10,41.80
2018,12,20,13,11,30.60
2018,12,20,13,12,33.80
2018,12,20,13,13,35.40
2018,12,20,13,14,35.40
2018,12,20,13,15,45.10
2018,12,20,13,16,43.50
2018,12,20,13,17,29.00
2018,12,20,13,18,30.60
2018,12,20,13,19,29.00
2018,12,20,13,20,41.80
2018,12,20,13,21,37.00
2018,12,20,13,22,46.70
2018,12,20,13,23,43.50
2018,12,20,13,24,64.40
2018,12,20,13,25,51.50
2018,12,20,13,26,46.70
2018,12,20,13,27,48.30
2018,12,20,13,28,45.10
2018,12,20,13,29,37.00
2018,12,20,13,30,43.50
2018,12,20,13,31,53.10
2018,12,20,13,32,43.50
2018,12,20,13,33,49.90
2018,12,20,13,34,46.70
2018,12,20,13,35,43.50
2018,12,20,13,36,27.40
2018,12,20,13,37,40.20
2018,12,20,13,38,59.50
2018,12,20,13,39,59.50
2018,12,20,13,40,54.70
2018,12,20,13,41,49.90
2018,12,20,13,42,57.90
2018,12,20,13,43,49.90
2018,12,20,13,44,49.90
2018,12,20,13,45,35.40
2018,12,20,13,46,41.80
2018,12,20,13,47,46.70
2018,12,20,13,48,33.80
2018,12,20,13,49,35.40
2018,12,20,13,50,51.50
2018,12,20,13,51,49.90
2018,12,20,13,52,49.90
2018,12,20,13,53,54.70
2018,12,20,13,54,69.20
2018,12,20,13,55,57.90
2018,12,20,13,56,51.50
2018,12,20,13,57,51.50
2018,12,20,13,58,49.90
2018,12,20,13,59,51.50
2018,12,20,14,00,59.50
2018,12,20,14,01,53.10
2018,12,20,14,02,38.60
2018,12,20,14,03,51.50
2018,12,20,14,04,45.10
2018,12,20,14,05,53.10
2018,12,20,14,06,46.70
2018,12,20,14,07,48.30
2018,12,20,14,08,51.50
2018,12,20,14,09,45.10
2018,12,20,14,10,37.00
2018,12,20,14,11,53.10
2018,12,20,14,12,40.20
2018,12,20,14,13,30.60
2018,12,20,14,14,41.80
2018,12,20,14,15,32.20
2018,12,20,14,16,46.70
2018,12,20,14,17,59.50
2018,12,20,14,18,57.90
2018,12,20,14,19,48.30
2018,12,20,14,20,51.50
2018,12,20,14,21,38.60
2018,12,20,14,22,37.00
2018,12,20,14,23,41.80
2018,12,20,14,24,43.50
2018,12,20,14,25,46.70
2018,12,20,14,26,41.80
2018,12,20,14,27,57.90
2018,12,20,14,28,48.30
2018,12,20,14,29,49.90
2018,12,20,14,30,56.30
2018,12,20,14,31,49.90
2018,12,20,14,32,51.50
2018,12,20,14,33,33.80
2018,12,20,14,34,62.70
2018,12,20,14,35,64.40
2018,12,20,14,36,48.30
2018,12,20,14,37,46.70
2018,12,20,14,38,46.70
2018,12,20,14,39,40.20
2018,12,20,14,40,43.50
2018,12,20,14,41,61.20
2018,12,20,14,42,61.20
2018,12,20,14,43,37.00
2018,12,20,14,44,40.20
2018,12,20,14,45,35.40
2018,12,20,14,46,46.70
2018,12,20,14,47,64.40
2018,12,20,14,48,53.10
2018,12,20,14,49,37.00
2018,12,20,14,50,51.50
2018,12,20,14,51,48.30
2018,12,20,14,52,59.50
2018,12,20,14,53,49.90
2018,12,20,14,54,38.60
2018,12,20,14,55,38.60
2018,12,20,14,56,45.10
2018,12,20,14,57,35.40
2018,12,20,14,58,49.90
2018,12,20,14,59,37.00
2018,12,20,15,00,45.10
2018,12,20,15,01,46.70
2018,12,20,15,02,46.70
2018,12,20,15,03,33.80
2018,12,20,15,04,37.00
2018,12,20,15,05,53.10
2018,12,20,15,06,56.30
2018,12,20,15,07,41.80
2018,12,20,15,08,59.50
2018,12,20,15,09,48.30
2018,12,20,15,10,40.20
2018,12,20,15,11,37.00
2018,12,20,15,12,43.50
2018,12,20,15,13,38.60
2018,12,20,15,14,49.90
2018,12,20,15,15,51.50
2018,12,20,15,16,53.10
2018,12,20,15,17,33.80
2018,12,20,15,18,40.20
2018,12,20,15,19,46.70
2018,12,20,15,20,45.10
2018,12,20,15,21,61.20
2018,12,20,15,22,49.90
2018,12,20,15,23,48.30
2018,12,20,15,24,37.00
2018,12,20,15,25,67.60
2018,12,20,15,26,64.40
2018,12,20,15,27,62.70
2018,12,20,15,28,37.00
2018,12,20,15,29,57.90
2018,12,20,15,30,51.50
2018,12,20,15,31,53.10
2018,12,20,15,32,49.90
2018,12,20,15,33,59.50
2018,12,20,15,34,53.10
2018,12,20,15,35,40.20
2018,12,20,15,36,48.30
2018,12,20,15,37,48.30
2018,12,20,15,38,37.00
2018,12,20,15,39,33.80
2018,12,20,15,40,40.20
2018,12,20,15,41,48.30
2018,12,20,15,42,40.20
2018,12,20,15,43,45.10
2018,12,20,15,44,37.00
2018,12,20,15,45,48.30
2018,12,20,15,46,59.50
2018,12,20,15,47,49.90
2018,12,20,15,48,40.20
2018,12,20,15,49,54.70
2018,12,20,15,50,54.70
2018,12,20,15,51,37.00
2018,12,20,15,52,46.70
2018,12,20,15,53,33.80
2018,12,20,15,54,40.20
2018,12,20,15,55,48.30
2018,12,20,15,56,48.30
2018,12,20,15,57,49.90
2018,12,20,15,58,38.60
2018,12,20,15,59,49.90
2018,12,20,16,00,38.60
2018,12,20,16,01,29.00
2018,12,20,16,02,53.10
2018,12,20,16,03,59.50
2018,12,20,16,04,54.70
2018,12,20,16,05,59.50
2018,12,20,16,06,46.70
2018,12,20,16,07,48.30
2018,12,20,16,08,57.90
2018,12,20,16,09,59.50
2018,12,20,16,10,53.10
2018,12,20,16,11,56.30
2018,12,20,16,12,66.00
2018,12,20,16,13,59.50
2018,12,20,16,14,64.40
2018,12,20,16,15,48.30
2018,12,20,16,16,53.10
2018,12,20,16,17,54.70
2018,12,20,16,18,69.20
2018,12,20,16,19,78.80
2018,12,20,16,20,67.60
2018,12,20,16,21,61.20
2018,12,20,16,22,54.70
2018,12,20,16,23,59.50
2018,12,20,16,24,49.90
2018,12,20,16,25,46.70
2018,12,20,16,26,57.90
2018,12,20,16,27,56.30
2018,12,20,16,28,51.50
2018,12,20,16,29,48.30
2018,12,20,16,30,38.60
2018,12,20,16,31,40.20
2018,12,20,16,32,24.20
2018,12,20,16,33,32.20
2018,12,20,16,34,27.40
2018,12,20,16,35,40.20
2018,12,20,16,36,37.00
2018,12,20,16,37,45.10
2018,12,20,16,38,38.60
2018,12,20,16,39,49.90
2018,12,20,16,40,20.90
2018,12,20,16,41,37.00
2018,12,20,16,42,41.80
2018,12,20,16,43,32.20
2018,12,20,16,44,27.40
2018,12,20,16,45,38.60
2018,12,20,16,46,22.50
2018,12,20,16,47,30.60
2018,12,20,16,48,45.10
2018,12,20,16,49,35.40
2018,12,20,16,50,33.80
2018,12,20,16,51,38.60
2018,12,20,16,52,20.90
2018,12,20,16,53,25.70
2018,12,20,16,54,22.50
2018,12,20,16,55,27.40
2018,12,20,16,56,29.00
2018,12,20,16,57,41.80
2018,12,20,16,58,49.90
2018,12,20,16,59,24.20
2018,12,20,17,00,22.50
2018,12,20,17,01,35.40
2018,12,20,17,02,45.10
2018,12,20,17,03,27.40
2018,12,20,17,04,27.40
2018,12,20,17,05,22.50
2018,12,20,17,06,24.20
2018,12,20,17,07,35.40
2018,12,20,17,08,40.20
2018,12,20,17,09,43.50
2018,12,20,17,10,32.20
2018,12,20,17,11,37.00
2018,12,20,17,12,27.40
2018,12,20,17,13,27.40
2018,12,20,17,14,41.80
2018,12,20,17,15,35.40
2018,12,20,17,16,27.40
2018,12,20,17,17,20.90
2018,12,20,17,18,32.20
2018,12,20,17,19,19.30
2018,12,20,17,20,30.60
2018,12,20,17,21,27.40
2018,12,20,17,22,49.90
2018,12,20,17,23,41.80
2018,12,20,17,24,25.70